20050117,000025,1125403,33.483418,-122.537225,13.416,33.050,1.714,3.141
20050117,000054,1125432,33.483530,-122.537360,13.418,33.049,1.914,4.070
20050117,000125,1125464,33.483626,-122.537496,13.419,33.050,1.828,4.516
20050117,000155,1125493,33.483690,-122.537625,13.421,33.048,1.929,4.903
20050117,000225,1125523,33.483746,-122.537738,13.422,33.048,1.900,3.872
20050117,000256,1125555,33.483801,-122.537821,13.424,33.050,1.842,3.306
20050117,000325,1125584,33.483858,-122.537918,13.424,33.051,1.828,3.498
20050117,000355,1125614,33.483885,-122.538008,13.422,33.051,1.929,4.864
20050117,000425,1125644,33.483891,-122.538098,13.418,33.055,2.121,5.013
20050117,000455,1125673,33.483913,-122.538183,13.412,33.051,1.988,3.558
20050117,000525,1125703,33.483933,-122.538236,13.416,33.049,1.958,3.497
20050117,000556,1125734,33.483948,-122.538328,13.421,33.050,2.076,4.457
20050117,000625,1125764,33.483986,-122.538423,13.427,33.048,2.136,5.307
20050117,000655,1125794,33.483996,-122.538535,13.426,33.053,1.958,4.904
20050117,000725,1125823,33.483998,-122.538616,13.424,33.053,2.076,4.134
20050117,000756,1125855,33.484028,-122.538661,13.419,33.056,2.046,3.673
20050117,000826,1125885,33.484058,-122.538700,13.410,33.059,2.106,3.757
20050117,000855,1125913,33.484103,-122.538780,13.416,33.050,2.091,4.117
20050117,000925,1125944,33.484145,-122.538870,13.419,33.050,2.302,5.652
20050117,000955,1125974,33.484170,-122.538981,13.421,33.050,2.394,5.860
20050117,001025,1126003,33.484170,-122.539103,13.424,33.050,2.181,5.365
20050117,001056,1126035,33.484161,-122.539215,13.424,33.052,2.196,5.386
20050117,001126,1126065,33.484178,-122.539326,13.424,33.051,2.018,4.697
20050117,001155,1126094,33.484201,-122.539428,13.424,33.052,2.211,3.919
20050117,001225,1126124,33.484233,-122.539473,13.426,33.050,2.257,4.240
20050117,001256,1126154,33.484281,-122.539525,13.424,33.053,2.046,3.679
20050117,001325,1126183,33.484310,-122.539608,13.418,33.055,2.121,4.447
20050117,001356,1126215,33.484320,-122.539685,13.417,33.054,2.211,5.370
20050117,001425,1126243,33.484335,-122.539815,13.414,33.055,2.318,5.604
20050117,001455,1126274,33.484365,-122.539938,13.413,33.053,2.333,5.370
20050117,001525,1126304,33.484413,-122.540041,13.413,33.052,2.379,4.198
20050117,001556,1126335,33.484466,-122.540123,13.413,33.054,2.441,4.366
20050117,001626,1126365,33.484521,-122.540193,13.418,33.049,2.441,4.234
20050117,001656,1126395,33.484558,-122.540246,13.420,33.051,2.242,4.447
20050117,001725,1126424,33.484583,-122.540355,13.424,33.053,2.257,5.323
20050117,001755,1126454,33.484625,-122.540473,13.424,33.052,2.425,5.653
20050117,001825,1126484,33.484675,-122.540605,13.421,33.055,2.410,5.589
20050117,001856,1126515,33.484731,-122.540736,13.420,33.055,2.364,5.386
20050117,001925,1126543,33.484801,-122.540868,13.419,33.052,2.488,4.771
20050117,001956,1126575,33.484856,-122.540993,13.420,33.055,2.488,4.400
20050117,002026,1126604,33.484915,-122.541090,13.420,33.053,2.379,4.375
20050117,002056,1126634,33.484953,-122.541188,13.424,33.052,2.645,5.959
20050117,002125,1126664,33.484993,-122.541316,13.423,33.053,2.441,5.569
20050117,002155,1126693,33.485051,-122.541460,13.420,33.055,2.472,5.582
20050117,002225,1126723,33.485106,-122.541593,13.420,33.054,2.488,4.484
20050117,002257,1126756,33.485198,-122.541698,13.416,33.056,2.566,4.452
20050117,002327,1126786,33.485280,-122.541818,13.418,33.054,2.472,4.920
20050117,002356,1126814,33.485353,-122.541941,13.416,33.055,2.614,5.808
20050117,002426,1126845,33.485428,-122.542065,13.413,33.056,2.805,6.093
20050117,002455,1126873,33.485483,-122.542188,13.416,33.047,2.772,5.962
20050117,002527,1126905,33.485535,-122.542323,13.420,33.052,2.837,6.018
20050117,002556,1126934,33.485581,-122.542430,13.419,33.055,2.789,5.883
20050117,002626,1126964,33.485651,-122.542548,13.424,33.052,2.630,5.570
20050117,002656,1126994,33.485716,-122.542698,13.426,33.053,2.693,5.682
20050117,002727,1127025,33.485773,-122.542806,13.424,33.057,2.725,5.765
20050117,002757,1127055,33.485811,-122.542950,13.425,33.055,2.902,6.135
20050117,002827,1127086,33.485886,-122.543073,13.423,33.057,2.902,6.023
20050117,002857,1127116,33.485956,-122.543191,13.421,33.057,2.951,5.912
20050117,002927,1127146,33.486016,-122.543306,13.421,33.054,2.984,6.204
20050117,002956,1127174,33.486090,-122.543418,13.424,33.055,2.870,5.980
20050117,003026,1127205,33.486135,-122.543550,13.425,33.054,2.967,6.207
20050117,003056,1127235,33.486198,-122.543656,13.421,33.056,2.934,6.190
20050117,003126,1127264,33.486225,-122.543761,13.425,33.055,3.017,6.421
20050117,003157,1127296,33.486220,-122.543855,13.427,33.057,2.934,6.309
20050117,003226,1127324,33.486248,-122.543943,13.432,33.053,3.000,6.449
20050117,003257,1127355,33.486275,-122.544038,13.432,33.055,3.099,6.672
20050117,003327,1127385,33.486311,-122.544156,13.435,33.055,3.066,6.656
20050117,003356,1127415,33.486368,-122.544275,13.433,33.057,3.132,6.803
20050117,003427,1127446,33.486438,-122.544395,13.430,33.058,2.934,6.363
20050117,003457,1127476,33.486488,-122.544520,13.428,33.058,2.951,6.441
20050117,003527,1127505,33.486551,-122.544631,13.422,33.061,3.017,6.597
20050117,003557,1127535,33.486611,-122.544758,13.419,33.059,3.033,6.624
20050117,003627,1127565,33.486688,-122.544886,13.421,33.055,3.066,6.671
20050117,003656,1127594,33.486735,-122.545020,13.423,33.055,3.033,6.592
20050117,003726,1127624,33.486811,-122.545125,13.424,33.056,2.967,6.436
20050117,003757,1127656,33.486898,-122.545265,13.427,33.054,3.000,6.473
20050117,003827,1127685,33.486998,-122.545363,13.426,33.061,3.066,6.578
20050117,003857,1127715,33.487068,-122.545525,13.429,33.056,3.199,6.868
20050117,003927,1127745,33.487150,-122.545648,13.429,33.058,3.017,6.477
20050117,003957,1127776,33.487193,-122.545815,13.430,33.055,3.017,6.429
20050117,004026,1127804,33.487241,-122.545918,13.429,33.057,3.116,6.648
20050117,004057,1127835,33.487280,-122.546001,13.429,33.058,3.132,6.650
20050117,004127,1127865,33.487328,-122.546106,13.424,33.060,3.000,6.372
20050117,004157,1127895,33.487393,-122.546203,13.424,33.059,3.116,6.596
20050117,004226,1127925,33.487440,-122.546308,13.427,33.057,3.000,6.352
20050117,004257,1127956,33.487500,-122.546415,13.429,33.057,3.099,6.520
20050117,004328,1127986,33.487556,-122.546551,13.429,33.056,3.132,6.588
20050117,004357,1128015,33.487595,-122.546691,13.429,33.058,3.099,6.493
20050117,004427,1128045,33.487685,-122.546836,13.429,33.059,3.082,6.451
20050117,004457,1128075,33.487848,-122.547056,13.428,33.058,3.033,6.327
20050117,004527,1128106,33.487988,-122.547261,13.427,33.060,3.182,6.596
20050117,004557,1128136,33.488105,-122.547440,13.431,33.057,3.099,6.398
20050117,004628,1128166,33.488196,-122.547601,13.431,33.060,3.099,6.363
20050117,004658,1128197,33.488261,-122.547750,13.429,33.062,3.099,6.355
20050117,004728,1128227,33.488293,-122.547915,13.428,33.062,3.132,6.404
20050117,004758,1128256,33.488350,-122.548091,13.426,33.061,3.049,6.162
20050117,004828,1128286,33.488428,-122.548246,13.422,33.061,3.132,6.337
20050117,004857,1128316,33.488505,-122.548391,13.429,33.058,3.082,6.214
20050117,004928,1128347,33.488590,-122.548563,13.428,33.059,3.082,6.239
20050117,004958,1128377,33.488668,-122.548723,13.424,33.062,3.099,6.263
20050117,005028,1128407,33.488700,-122.548880,13.422,33.061,3.049,6.134
20050117,005058,1128436,33.488766,-122.549040,13.424,33.063,3.132,6.283
20050117,005127,1128466,33.488850,-122.549238,13.419,33.062,3.116,6.200
20050117,005158,1128496,33.488950,-122.549405,13.420,33.057,3.132,6.251
20050117,005228,1128527,33.489028,-122.549576,13.421,33.057,3.049,6.079
20050117,005257,1128555,33.489103,-122.549720,13.420,33.060,3.017,5.981
20050117,005328,1128587,33.489156,-122.549885,13.419,33.061,3.033,5.988
20050117,005358,1128616,33.489218,-122.550030,13.417,33.061,3.066,6.030
20050117,005429,1128648,33.489288,-122.550213,13.415,33.061,3.000,5.887
20050117,005459,1128677,33.489371,-122.550350,13.411,33.062,3.066,5.977
20050117,005528,1128707,33.489441,-122.550496,13.410,33.060,3.082,5.986
20050117,005559,1128737,33.489490,-122.550646,13.413,33.060,3.099,5.981
20050117,005628,1128766,33.489505,-122.550793,13.413,33.059,3.082,5.939
20050117,005659,1128798,33.489578,-122.550990,13.412,33.058,3.033,5.825
20050117,005728,1128826,33.489683,-122.551185,13.414,33.057,3.033,5.804
20050117,005758,1128857,33.489783,-122.551316,13.411,33.060,3.017,5.778
20050117,005829,1128887,33.489856,-122.551430,13.408,33.059,3.049,5.791
20050117,005859,1128917,33.489890,-122.551560,13.404,33.059,3.182,5.980
20050117,005928,1128946,33.489933,-122.551678,13.404,33.057,3.149,5.868
20050117,005959,1128978,33.489978,-122.551813,13.404,33.059,3.199,5.996
20050117,010029,1129007,33.490050,-122.552016,13.404,33.060,3.149,5.764
20050117,010059,1129037,33.490163,-122.552261,13.400,33.062,3.099,5.736
20050117,010129,1129067,33.490281,-122.552543,13.401,33.060,3.132,5.790
20050117,010159,1129098,33.490423,-122.552865,13.401,33.058,3.199,5.884
20050117,010229,1129128,33.490555,-122.553161,13.400,33.059,3.300,6.064
20050117,010300,1129158,33.490718,-122.553478,13.398,33.059,3.333,6.069
20050117,010330,1129189,33.490891,-122.553771,13.397,33.058,3.350,6.076
20050117,010400,1129219,33.491033,-122.554100,13.396,33.058,3.283,5.900
20050117,010429,1129247,33.491151,-122.554431,13.394,33.056,3.316,5.951
20050117,010459,1129278,33.491265,-122.554726,13.388,33.063,3.316,5.924
20050117,010530,1129308,33.491371,-122.555028,13.388,33.059,3.283,5.844
20050117,010600,1129338,33.491475,-122.555256,13.388,33.058,3.418,6.037
20050117,010629,1129367,33.491555,-122.555495,13.382,33.059,3.316,5.850
20050117,010700,1129399,33.491643,-122.555748,13.378,33.059,3.215,5.623
20050117,010730,1129428,33.491735,-122.555981,13.377,33.058,3.300,5.769
20050117,010800,1129458,33.491753,-122.556188,13.376,33.057,3.232,5.633
20050117,010829,1129488,33.491773,-122.556378,13.379,33.058,3.384,5.846
20050117,010900,1129519,33.491821,-122.556553,13.381,33.054,3.316,5.703
20050117,010930,1129549,33.491860,-122.556763,13.376,33.057,3.232,5.565
20050117,011000,1129579,33.491871,-122.556945,13.375,33.054,3.333,5.706
20050117,011030,1129608,33.491871,-122.557123,13.378,33.055,3.350,5.709
20050117,011101,1129640,33.491858,-122.557281,13.379,33.055,3.367,5.714
20050117,011130,1129668,33.491845,-122.557398,13.380,33.055,3.316,5.607
20050117,011200,1129699,33.491825,-122.557553,13.379,33.056,3.367,5.660
20050117,011230,1129729,33.491873,-122.557770,13.378,33.055,3.300,5.552
20050117,011300,1129758,33.491933,-122.558025,13.377,33.054,3.300,5.518
20050117,011330,1129788,33.491965,-122.558286,13.377,33.055,3.350,5.586
20050117,011400,1129818,33.491988,-122.558508,13.379,33.057,3.452,5.727
20050117,011431,1129849,33.491983,-122.558701,13.377,33.056,3.435,5.682
20050117,011501,1129879,33.491976,-122.558870,13.377,33.055,3.401,5.594
20050117,011530,1129909,33.491976,-122.559091,13.377,33.055,3.418,5.577
20050117,011601,1129940,33.492021,-122.559340,13.377,33.055,3.401,5.528
20050117,011631,1129970,33.492040,-122.559568,13.377,33.054,3.350,5.421
20050117,011701,1130000,33.492048,-122.559723,13.376,33.055,3.401,5.463
20050117,011731,1130029,33.492006,-122.559858,13.373,33.055,3.503,5.573
20050117,011800,1130059,33.491963,-122.559961,13.373,33.055,3.469,5.509
20050117,011830,1130089,33.491910,-122.560090,13.373,33.052,3.401,5.395
20050117,011901,1130120,33.491880,-122.560288,13.375,33.054,3.435,5.440
20050117,011930,1130148,33.491911,-122.560521,13.371,33.055,3.435,5.434
20050117,012001,1130179,33.491910,-122.560721,13.372,33.054,3.452,5.453
20050117,012031,1130209,33.491915,-122.560893,13.372,33.054,3.418,5.396
20050117,012101,1130239,33.491921,-122.561063,13.373,33.054,3.503,5.520
20050117,012131,1130270,33.491961,-122.561293,13.372,33.053,3.452,5.437
20050117,012201,1130300,33.492011,-122.561516,13.369,33.055,3.623,5.694
20050117,012231,1130330,33.492076,-122.561780,13.370,33.052,3.486,5.480
20050117,012301,1130359,33.492150,-122.561971,13.368,33.055,3.486,5.475
20050117,012331,1130389,33.492193,-122.562143,13.369,33.054,3.435,5.395
20050117,012402,1130421,33.492221,-122.562316,13.369,33.053,3.589,5.625
20050117,012431,1130450,33.492265,-122.562576,13.368,33.052,3.606,5.649
20050117,012501,1130480,33.492305,-122.562813,13.367,33.053,3.572,5.595
20050117,012532,1130510,33.492305,-122.562980,13.366,33.053,3.606,5.643
20050117,012601,1130539,33.492355,-122.563210,13.366,33.052,3.572,5.590
20050117,012631,1130569,33.492408,-122.563480,13.366,33.054,3.693,5.770
20050117,012701,1130599,33.492485,-122.563741,13.364,33.051,3.641,5.687
20050117,012732,1130630,33.492655,-122.563995,13.365,33.052,3.623,5.656
20050117,012801,1130660,33.492916,-122.564093,13.365,33.052,3.641,5.679
20050117,012832,1130691,33.493241,-122.564191,13.366,33.054,3.641,5.677
20050117,012902,1130721,33.493538,-122.564258,13.364,33.052,3.658,5.700
20050117,012932,1130751,33.493781,-122.564291,13.366,33.055,3.676,5.724
20050117,013002,1130780,33.493993,-122.564343,13.364,33.050,3.641,5.670
20050117,013031,1130810,33.494186,-122.564396,13.363,33.053,3.606,5.616
20050117,013102,1130840,33.494395,-122.564436,13.361,33.053,3.693,5.745
20050117,013132,1130871,33.494546,-122.564491,13.357,33.057,3.693,5.743
20050117,013202,1130901,33.494640,-122.564580,13.357,33.052,3.833,5.954
20050117,013232,1130930,33.494765,-122.564835,13.358,33.054,3.762,5.846
20050117,013302,1130960,33.494696,-122.565271,13.355,33.054,3.797,5.899
20050117,013331,1130990,33.494373,-122.565865,13.355,33.053,3.833,5.951
20050117,013402,1131020,33.493940,-122.566575,13.353,33.053,3.885,6.029
20050117,013432,1131051,33.493468,-122.567398,13.354,33.053,3.974,6.162
20050117,013503,1131081,33.492933,-122.568265,13.353,33.053,3.867,5.999
20050117,013533,1131112,33.492350,-122.569220,13.353,33.053,3.938,6.106
20050117,013602,1131140,33.491736,-122.570271,13.354,33.052,3.885,6.024
20050117,013632,1131170,33.491030,-122.571426,13.352,33.054,3.885,6.023
20050117,013703,1131201,33.490315,-122.572676,13.352,33.057,3.974,6.157
20050117,013733,1131231,33.489585,-122.573928,13.353,33.053,3.920,6.075
20050117,013803,1131261,33.488876,-122.575138,13.355,33.051,3.903,6.047
20050117,013833,1131292,33.488116,-122.576455,13.355,33.054,3.797,5.886
20050117,013903,1131322,33.487348,-122.577820,13.354,33.053,3.903,6.045
20050117,013933,1131351,33.486546,-122.579180,13.356,33.053,3.867,5.991
20050117,014003,1131381,33.485786,-122.580566,13.355,33.052,3.885,6.016
20050117,014033,1131411,33.484966,-122.581958,13.356,33.055,3.833,5.937
20050117,014103,1131442,33.484221,-122.583298,13.356,33.055,3.850,5.963
20050117,014133,1131472,33.483420,-122.584651,13.358,33.053,3.797,5.883
20050117,014203,1131502,33.482620,-122.586078,13.358,33.056,3.797,5.881
20050117,014233,1131531,33.481843,-122.587406,13.361,33.054,3.711,5.750
20050117,014303,1131561,33.481065,-122.588791,13.362,33.055,3.780,5.854
20050117,014333,1131591,33.480230,-122.590226,13.361,33.058,3.797,5.881
20050117,014403,1131622,33.479456,-122.591580,13.363,33.057,3.711,5.749
20050117,014433,1131652,33.478673,-122.592985,13.364,33.057,3.833,5.933
20050117,014504,1131682,33.477823,-122.594388,13.364,33.057,3.745,5.799
20050117,014533,1131711,33.477053,-122.595728,13.363,33.062,3.693,5.721
20050117,014604,1131743,33.476223,-122.597150,13.362,33.062,3.780,5.852
20050117,014633,1131771,33.475448,-122.598505,13.361,33.062,3.885,6.010
20050117,014703,1131802,33.474620,-122.599931,13.361,33.065,3.727,5.772
20050117,014733,1131832,33.473835,-122.601276,13.357,33.067,3.623,5.615
20050117,014803,1131861,33.473018,-122.602648,13.354,33.066,3.589,5.563
20050117,014833,1131891,33.472205,-122.604046,13.353,33.066,3.486,5.409
20050117,014904,1131923,33.471365,-122.605486,13.351,33.067,3.503,5.435
20050117,014933,1131952,33.470546,-122.606868,13.348,33.065,3.350,5.205
20050117,015003,1131982,33.469730,-122.608170,13.346,33.064,3.401,5.282
20050117,015034,1132012,33.468943,-122.609595,13.347,33.061,3.266,5.080
20050117,015104,1132043,33.468140,-122.610955,13.348,33.063,3.182,4.954
20050117,015133,1132071,33.467318,-122.612336,13.350,33.060,3.182,4.954
20050117,015204,1132102,33.466475,-122.613713,13.353,33.060,3.082,4.807
20050117,015234,1132132,33.465643,-122.615086,13.348,33.063,3.049,4.757
20050117,015303,1132162,33.464855,-122.616431,13.351,33.059,3.017,4.710
20050117,015334,1132193,33.463983,-122.617906,13.350,33.062,2.984,4.660
20050117,015404,1132223,33.463190,-122.619261,13.349,33.059,2.967,4.636
20050117,015434,1132253,33.462355,-122.620643,13.350,33.059,2.951,4.612
20050117,015504,1132282,33.461513,-122.622033,13.350,33.059,2.934,4.587
20050117,015534,1132312,33.460680,-122.623433,13.348,33.058,2.967,4.636
20050117,015604,1132342,33.459838,-122.624810,13.347,33.059,2.967,4.636
20050117,015634,1132373,33.459003,-122.626181,13.344,33.061,2.918,4.563
20050117,015704,1132403,33.458186,-122.627568,13.340,33.061,2.984,4.660
20050117,015735,1132433,33.457313,-122.628983,13.337,33.061,2.951,4.611
20050117,015804,1132462,33.456520,-122.630315,13.336,33.059,2.886,4.516
20050117,015834,1132492,33.455655,-122.631738,13.334,33.059,2.951,4.611
20050117,015904,1132522,33.454845,-122.633086,13.331,33.058,2.984,4.660
20050117,015934,1132553,33.453986,-122.634513,13.331,33.062,2.951,4.611
20050117,020004,1132583,33.453158,-122.635846,13.327,33.059,2.984,4.660
20050117,020034,1132612,33.452316,-122.637225,13.325,33.060,3.099,4.830
20050117,020104,1132642,33.451463,-122.638606,13.323,33.059,3.033,4.732
20050117,020133,1132672,33.450636,-122.639986,13.326,33.055,3.033,4.732
20050117,020204,1132703,33.449776,-122.641343,13.326,33.057,3.033,4.732
20050117,020234,1132733,33.448938,-122.642736,13.325,33.058,2.984,4.660
20050117,020304,1132763,33.448043,-122.644170,13.326,33.057,3.017,4.709
20050117,020334,1132792,33.447231,-122.645510,13.326,33.057,3.049,4.757
20050117,020404,1132822,33.446381,-122.646891,13.324,33.057,3.033,4.732
20050117,020435,1132853,33.445515,-122.648338,13.325,33.057,3.099,4.831
20050117,020505,1132883,33.444648,-122.649716,13.326,33.057,3.099,4.831
20050117,020534,1132913,33.443798,-122.651105,13.324,33.058,3.082,4.806
20050117,020605,1132944,33.442953,-122.652458,13.323,33.060,3.182,4.953
20050117,020635,1132974,33.442120,-122.653771,13.323,33.057,3.132,4.880
20050117,020705,1133004,33.441260,-122.655193,13.323,33.058,3.066,4.781
20050117,020735,1133033,33.440403,-122.656571,13.320,33.060,3.066,4.781
20050117,020804,1133063,33.439591,-122.657928,13.318,33.065,3.132,4.880
20050117,020834,1133093,33.438736,-122.659313,13.315,33.063,3.000,4.684
20050117,020904,1133122,33.437878,-122.660685,13.311,33.066,3.099,4.830
20050117,020934,1133152,33.437003,-122.662088,13.312,33.063,3.149,4.905
20050117,021004,1133182,33.436178,-122.663418,13.314,33.060,3.049,4.757
20050117,021034,1133213,33.435301,-122.664843,13.315,33.061,3.033,4.732
20050117,021104,1133243,33.434463,-122.666171,13.315,33.062,3.066,4.781
20050117,021134,1133273,33.433616,-122.667556,13.312,33.065,3.000,4.684
20050117,021204,1133302,33.432765,-122.668936,13.312,33.065,3.017,4.709
20050117,021234,1133332,33.431925,-122.670313,13.314,33.063,3.017,4.709
20050117,021305,1133363,33.431030,-122.671745,13.312,33.067,3.017,4.709
20050117,021335,1133393,33.430175,-122.673136,13.311,33.064,3.132,4.880
20050117,021405,1133423,33.429315,-122.674516,13.307,33.064,3.116,4.855
20050117,021434,1133452,33.428466,-122.675890,13.307,33.066,3.099,4.831
20050117,021505,1133484,33.427615,-122.677280,13.307,33.064,3.033,4.732
20050117,021535,1133514,33.426716,-122.678711,13.308,33.065,3.049,4.757
20050117,021605,1133543,33.425893,-122.680046,13.310,33.065,3.166,4.930
20050117,021635,1133573,33.425033,-122.681423,13.310,33.065,3.066,4.781
20050117,021705,1133603,33.424183,-122.682795,13.303,33.069,3.066,4.781
20050117,021735,1133634,33.423345,-122.684161,13.292,33.072,3.017,4.709
20050117,021805,1133664,33.422518,-122.685523,13.286,33.070,2.951,4.611
20050117,021835,1133694,33.421645,-122.686875,13.284,33.061,2.772,4.348
20050117,021906,1133725,33.420753,-122.688301,13.289,33.064,2.741,4.302
20050117,021935,1133753,33.419911,-122.689605,13.296,33.060,2.693,4.231
20050117,022005,1133783,33.419050,-122.690995,13.298,33.061,2.772,4.348
20050117,022035,1133814,33.418148,-122.692420,13.298,33.062,2.805,4.396
20050117,022105,1133844,33.417305,-122.693758,13.296,33.064,2.805,4.396
20050117,022135,1133873,33.416447,-122.695150,13.295,33.064,2.677,4.207
20050117,022205,1133903,33.415562,-122.696576,13.295,33.062,2.757,4.325
20050117,022235,1133933,33.414725,-122.697896,13.298,33.059,2.821,4.419
20050117,022305,1133964,33.413858,-122.699280,13.305,33.056,2.772,4.348
20050117,022335,1133994,33.413000,-122.700665,13.312,33.056,2.630,4.138
20050117,022405,1134024,33.412158,-122.702048,13.322,33.054,2.488,3.931
20050117,022435,1134053,33.411293,-122.703421,13.319,33.060,2.488,3.931
20050117,022505,1134083,33.410402,-122.704840,13.323,33.055,2.519,3.976
20050117,022535,1134113,33.409558,-122.706153,13.328,33.055,2.488,3.931
20050117,022605,1134144,33.408735,-122.707536,13.335,33.053,2.566,4.045
20050117,022635,1134174,33.407872,-122.708900,13.342,33.052,2.488,3.931
20050117,022705,1134203,33.407022,-122.710281,13.344,33.055,2.441,3.862
20050117,022736,1134235,33.406140,-122.711703,13.342,33.057,2.488,3.931
20050117,022805,1134263,33.405305,-122.713050,13.345,33.057,2.441,3.862
20050117,022835,1134294,33.404433,-122.714430,13.353,33.053,2.333,3.705
20050117,022905,1134324,33.403568,-122.715821,13.357,33.055,2.349,3.727
20050117,022936,1134354,33.402688,-122.717243,13.358,33.056,2.287,3.638
20050117,023006,1134385,33.401793,-122.718670,13.362,33.056,2.364,3.750
20050117,023036,1134415,33.400955,-122.720033,13.362,33.058,2.349,3.727
20050117,023106,1134445,33.400098,-122.721453,13.361,33.062,2.410,3.817
20050117,023136,1134474,33.399218,-122.722841,13.355,33.059,2.566,4.045
20050117,023206,1134504,33.398343,-122.724250,13.353,33.065,2.550,4.022
20050117,023237,1134535,33.397422,-122.725698,13.353,33.062,2.566,4.045
20050117,023306,1134565,33.396543,-122.727101,13.357,33.060,2.614,4.115
20050117,023337,1134595,33.395653,-122.728506,13.361,33.056,2.582,4.068
20050117,023407,1134626,33.394775,-122.729921,13.364,33.054,2.677,4.207
20050117,023437,1134656,33.393892,-122.731341,13.367,33.053,2.693,4.231
20050117,023506,1134684,33.392983,-122.732736,13.372,33.051,2.677,4.207
20050117,023536,1134715,33.392132,-122.734155,13.377,33.050,2.582,4.068
20050117,023606,1134745,33.391263,-122.735535,13.380,33.049,2.645,4.160
20050117,023637,1134775,33.390335,-122.737018,13.385,33.046,2.661,4.184
20050117,023706,1134804,33.389438,-122.738383,13.385,33.048,2.582,4.068
20050117,023736,1134834,33.388533,-122.739858,13.385,33.046,2.645,4.160
20050117,023807,1134866,33.387628,-122.741281,13.386,33.044,2.645,4.160
20050117,023837,1134895,33.386767,-122.742718,13.389,33.042,2.805,4.396
20050117,023906,1134925,33.385880,-122.744105,13.390,33.042,2.789,4.372
20050117,023936,1134955,33.385022,-122.745483,13.392,33.041,2.630,4.138
20050117,024006,1134984,33.384092,-122.746966,13.389,33.047,2.757,4.325
20050117,024036,1135014,33.383180,-122.748398,13.390,33.042,2.709,4.254
20050117,024107,1135045,33.382287,-122.749828,13.391,33.043,2.772,4.348
20050117,024136,1135075,33.381413,-122.751261,13.396,33.039,2.772,4.348
20050117,024207,1135105,33.380527,-122.752696,13.397,33.040,2.870,4.492
20050117,024237,1135136,33.379655,-122.754123,13.399,33.042,2.805,4.396
20050117,024306,1135164,33.378775,-122.755550,13.401,33.039,2.805,4.396
20050117,024337,1135196,33.377872,-122.756988,13.404,33.039,2.772,4.348
20050117,024407,1135225,33.377002,-122.758448,13.405,33.040,2.614,4.115